Time,TemperatureF,DewpointF,PressureIn,WindDirection,WindDirectionDegrees,WindSpeedMPH,WindSpeedGustMPH,Humidity,HourlyPrecipIn,Conditions,Clouds,dailyrainin,SoftwareType,DateUTC
2013-01-09 00:03:00,36.0,34.0,30.57,WNW,297,1.0,1.0,91,-99.99,,,-99.99,,2013-01-09 05:03:00,
2013-01-09 00:12:00,36.0,34.0,30.57,WNW,297,1.0,1.0,91,-99.99,,,-99.99,,2013-01-09 05:12:00,
2013-01-09 00:22:00,36.0,34.0,30.56,WNW,295,0.0,1.0,91,-99.99,,,-99.99,,2013-01-09 05:22:00,
2013-01-09 00:33:00,36.0,33.0,30.56,NW,316,1.0,2.0,89,-99.99,,,-99.99,,2013-01-09 05:33:00,
2013-01-09 00:42:00,36.0,33.0,30.56,NW,316,1.0,2.0,89,-99.99,,,-99.99,,2013-01-09 05:42:00,
2013-01-09 00:52:00,35.0,32.0,30.55,NW,316,0.0,1.0,88,-99.99,,,-99.99,,2013-01-09 05:52:00,
2013-01-09 01:02:00,34.0,31.0,30.56,NW,316,0.0,0.0,89,-99.99,,,-99.99,,2013-01-09 06:02:00,
2013-01-09 01:12:00,34.0,31.0,30.56,NW,316,0.0,0.0,89,-99.99,,,-99.99,,2013-01-09 06:12:00,
2013-01-09 01:22:00,34.0,31.0,30.56,NW,316,0.0,0.0,90,-99.99,,,-99.99,,2013-01-09 06:22:00,
2013-01-09 01:32:00,34.0,31.0,30.56,NW,316,0.0,0.0,88,-99.99,,,-99.99,,2013-01-09 06:32:00,
2013-01-09 01:42:00,34.0,31.0,30.56,NW,316,0.0,0.0,88,-99.99,,,-99.99,,2013-01-09 06:42:00,
2013-01-09 01:52:00,33.0,30.0,30.56,NW,316,0.0,0.0,88,-99.99,,,-99.99,,2013-01-09 06:52:00,
2013-01-09 02:02:00,33.0,30.0,30.57,NW,316,0.0,0.0,88,-99.99,,,-99.99,,2013-01-09 07:02:00,
2013-01-09 02:12:00,33.0,30.0,30.57,NW,316,0.0,0.0,88,-99.99,,,-99.99,,2013-01-09 07:12:00,
2013-01-09 02:22:00,33.0,29.0,30.56,NW,316,0.0,1.0,86,-99.99,,,-99.99,,2013-01-09 07:22:00,
2013-01-09 02:32:00,33.0,29.0,30.57,NW,316,0.0,0.0,86,-99.99,,,-99.99,,2013-01-09 07:32:00,
2013-01-09 02:42:00,33.0,29.0,30.57,NW,316,0.0,0.0,86,-99.99,,,-99.99,,2013-01-09 07:42:00,
2013-01-09 02:52:00,32.0,29.0,30.57,NW,316,0.0,0.0,87,-99.99,,,-99.99,,2013-01-09 07:52:00,
2013-01-09 03:02:00,32.0,29.0,30.57,NW,316,0.0,0.0,88,-99.99,,,-99.99,,2013-01-09 08:02:00,
2013-01-09 03:12:00,32.0,29.0,30.57,NW,316,0.0,0.0,88,-99.99,,,-99.99,,2013-01-09 08:12:00,
2013-01-09 03:22:00,32.0,29.0,30.58,NW,316,0.0,0.0,87,-99.99,,,-99.99,,2013-01-09 08:22:00,
2013-01-09 03:32:00,32.0,29.0,30.57,NW,316,0.0,0.0,88,-99.99,,,-99.99,,2013-01-09 08:32:00,
2013-01-09 03:42:00,32.0,29.0,30.57,NW,316,0.0,0.0,88,-99.99,,,-99.99,,2013-01-09 08:42:00,
2013-01-09 03:53:00,32.0,29.0,30.57,NW,316,0.0,0.0,87,-99.99,,,-99.99,,2013-01-09 08:53:00,
2013-01-09 04:02:00,32.0,29.0,30.57,NW,316,0.0,0.0,87,-99.99,,,-99.99,,2013-01-09 09:02:00,
2013-01-09 04:12:00,32.0,29.0,30.57,NW,316,0.0,0.0,87,-99.99,,,-99.99,,2013-01-09 09:12:00,
2013-01-09 04:22:00,32.0,29.0,30.56,NW,316,0.0,0.0,87,-99.99,,,-99.99,,2013-01-09 09:22:00,
2013-01-09 04:32:00,32.0,28.0,30.55,NW,316,0.0,0.0,86,-99.99,,,-99.99,,2013-01-09 09:32:00,
2013-01-09 04:42:00,32.0,28.0,30.55,NW,316,0.0,0.0,86,-99.99,,,-99.99,,2013-01-09 09:42:00,
2013-01-09 04:53:00,33.0,29.0,30.55,NW,316,0.0,0.0,84,-99.99,,,-99.99,,2013-01-09 09:53:00,
2013-01-09 05:02:00,33.0,29.0,30.55,NW,316,0.0,0.0,84,-99.99,,,-99.99,,2013-01-09 10:02:00,
2013-01-09 05:12:00,33.0,29.0,30.55,NW,316,0.0,0.0,84,-99.99,,,-99.99,,2013-01-09 10:12:00,
2013-01-09 05:22:00,32.0,28.0,30.55,NW,316,0.0,0.0,84,-99.99,,,-99.99,,2013-01-09 10:22:00,
2013-01-09 05:32:00,32.0,28.0,30.55,NW,316,0.0,0.0,85,-99.99,,,-99.99,,2013-01-09 10:32:00,
2013-01-09 05:42:00,32.0,28.0,30.55,NW,316,0.0,0.0,85,-99.99,,,-99.99,,2013-01-09 10:42:00,
2013-01-09 05:52:00,32.0,28.0,30.55,NW,316,0.0,0.0,84,-99.99,,,-99.99,,2013-01-09 10:52:00,
2013-01-09 06:02:00,33.0,28.0,30.56,NW,316,0.0,0.0,83,-99.99,,,-99.99,,2013-01-09 11:02:00,
2013-01-09 06:12:00,33.0,28.0,30.56,NW,316,0.0,0.0,83,-99.99,,,-99.99,,2013-01-09 11:12:00,
2013-01-09 06:22:00,33.0,28.0,30.57,NW,316,0.0,0.0,83,-99.99,,,-99.99,,2013-01-09 11:22:00,
2013-01-09 06:33:00,33.0,28.0,30.57,NW,316,0.0,0.0,83,-99.99,,,-99.99,,2013-01-09 11:33:00,
2013-01-09 06:42:00,33.0,28.0,30.57,NW,316,0.0,0.0,83,-99.99,,,-99.99,,2013-01-09 11:42:00,
2013-01-09 06:53:00,33.0,28.0,30.57,NW,316,0.0,0.0,82,-99.99,,,-99.99,,2013-01-09 11:53:00,
2013-01-09 07:03:00,33.0,28.0,30.57,NW,316,0.0,0.0,82,-99.99,,,-99.99,,2013-01-09 12:03:00,
2013-01-09 07:12:00,33.0,28.0,30.57,NW,316,0.0,0.0,82,-99.99,,,-99.99,,2013-01-09 12:12:00,
2013-01-09 07:23:00,33.0,28.0,30.57,NW,316,0.0,1.0,81,-99.99,,,-99.99,,2013-01-09 12:23:00,
2013-01-09 07:33:00,33.0,28.0,30.57,NW,316,0.0,1.0,80,-99.99,,,-99.99,,2013-01-09 12:33:00,
2013-01-09 07:43:00,33.0,28.0,30.57,NW,316,0.0,1.0,80,-99.99,,,-99.99,,2013-01-09 12:43:00,
2013-01-09 07:53:00,33.0,28.0,30.58,NW,316,0.0,1.0,80,-99.99,,,-99.99,,2013-01-09 12:53:00,
2013-01-09 08:03:00,32.0,27.0,30.58,NW,316,0.0,0.0,80,-99.99,,,-99.99,,2013-01-09 13:03:00,
2013-01-09 08:12:00,32.0,27.0,30.58,NW,316,0.0,0.0,80,-99.99,,,-99.99,,2013-01-09 13:12:00,
2013-01-09 08:23:00,34.0,28.0,30.58,NW,316,0.0,1.0,78,-99.99,,,-99.99,,2013-01-09 13:23:00,
2013-01-09 08:33:00,35.0,28.0,30.58,NW,316,0.0,0.0,75,-99.99,,,-99.99,,2013-01-09 13:33:00,
2013-01-09 08:43:00,35.0,28.0,30.58,NW,316,0.0,0.0,75,-99.99,,,-99.99,,2013-01-09 13:43:00,
2013-01-09 08:53:00,36.0,28.0,30.57,NW,316,0.0,0.0,73,-99.99,,,-99.99,,2013-01-09 13:53:00,
2013-01-09 09:03:00,36.0,29.0,30.57,SSW,197,0.0,2.0,74,-99.99,,,-99.99,,2013-01-09 14:03:00,
2013-01-09 09:12:00,36.0,29.0,30.57,SSW,197,0.0,2.0,74,-99.99,,,-99.99,,2013-01-09 14:12:00,
2013-01-09 09:23:00,36.0,29.0,30.57,WSW,247,0.0,1.0,75,-99.99,,,-99.99,,2013-01-09 14:23:00,
2013-01-09 09:33:00,37.0,30.0,30.57,WSW,248,0.0,0.0,76,-99.99,,,-99.99,,2013-01-09 14:33:00,
2013-01-09 09:43:00,37.0,30.0,30.57,WSW,248,0.0,0.0,76,-99.99,,,-99.99,,2013-01-09 14:43:00,
2013-01-09 09:53:00,37.0,30.0,30.57,WSW,253,0.0,1.0,75,-99.99,,,-99.99,,2013-01-09 14:53:00,
2013-01-09 10:03:00,38.0,31.0,30.57,West,269,0.0,1.0,75,-99.99,,,-99.99,,2013-01-09 15:03:00,
2013-01-09 10:13:00,38.0,31.0,30.57,West,269,0.0,1.0,75,-99.99,,,-99.99,,2013-01-09 15:13:00,
2013-01-09 10:23:00,38.0,31.0,30.57,West,277,1.0,2.0,75,-99.99,,,-99.99,,2013-01-09 15:23:00,
2013-01-09 10:33:00,39.0,31.0,30.56,West,274,0.0,1.0,72,-99.99,,,-99.99,,2013-01-09 15:33:00,
2013-01-09 10:43:00,39.0,31.0,30.56,West,274,0.0,1.0,72,-99.99,,,-99.99,,2013-01-09 15:43:00,
2013-01-09 10:53:00,39.0,31.0,30.54,SW,219,0.0,3.0,72,-99.99,,,-99.99,,2013-01-09 15:53:00,
2013-01-09 11:03:00,40.0,31.0,30.54,WNW,284,1.0,2.0,71,-99.99,,,-99.99,,2013-01-09 16:03:00,
2013-01-09 11:12:00,40.0,31.0,30.54,WNW,284,1.0,2.0,71,-99.99,,,-99.99,,2013-01-09 16:12:00,
2013-01-09 11:23:00,40.0,30.0,30.53,WNW,283,1.0,3.0,68,-99.99,,,-99.99,,2013-01-09 16:23:00,
2013-01-09 11:33:00,40.0,30.0,30.51,West,281,1.0,2.0,68,-99.99,,,-99.99,,2013-01-09 16:33:00,
2013-01-09 11:43:00,40.0,30.0,30.51,West,281,1.0,2.0,68,-99.99,,,-99.99,,2013-01-09 16:43:00,
2013-01-09 11:53:00,41.0,32.0,30.49,ESE,120,0.0,2.0,71,-99.99,,,-99.99,,2013-01-09 16:53:00,
2013-01-09 12:03:00,41.0,33.0,30.46,SSE,158,1.0,2.0,72,-99.99,,,-99.99,,2013-01-09 17:03:00,
2013-01-09 12:12:00,41.0,33.0,30.46,SSE,158,1.0,2.0,72,-99.99,,,-99.99,,2013-01-09 17:12:00,
2013-01-09 12:23:00,41.0,33.0,30.45,SSW,194,1.0,2.0,72,-99.99,,,-99.99,,2013-01-09 17:23:00,
2013-01-09 12:33:00,41.0,33.0,30.44,West,271,1.0,4.0,72,-99.99,,,-99.99,,2013-01-09 17:33:00,
2013-01-09 12:43:00,41.0,33.0,30.44,West,271,1.0,4.0,72,-99.99,,,-99.99,,2013-01-09 17:43:00,
2013-01-09 12:53:00,41.0,33.0,30.44,WSW,243,1.0,4.0,74,-99.99,,,-99.99,,2013-01-09 17:53:00,
2013-01-09 13:03:00,41.0,33.0,30.44,West,270,1.0,4.0,74,-99.99,,,-99.99,,2013-01-09 18:03:00,
2013-01-09 13:12:00,41.0,33.0,30.44,West,270,1.0,4.0,74,-99.99,,,-99.99,,2013-01-09 18:12:00,
2013-01-09 13:24:00,40.0,33.0,30.43,West,271,1.0,6.0,75,-99.99,,,-99.99,,2013-01-09 18:24:00,
2013-01-09 13:33:00,40.0,33.0,30.42,WSW,250,1.0,3.0,75,-99.99,,,-99.99,,2013-01-09 18:33:00,
2013-01-09 13:43:00,40.0,33.0,30.42,WSW,250,1.0,3.0,75,-99.99,,,-99.99,,2013-01-09 18:43:00,
2013-01-09 13:53:00,41.0,34.0,30.42,West,281,1.0,2.0,75,-99.99,,,-99.99,,2013-01-09 18:53:00,
2013-01-09 14:03:00,41.0,34.0,30.42,WNW,286,0.0,3.0,75,-99.99,,,-99.99,,2013-01-09 19:03:00,
2013-01-09 14:13:00,41.0,34.0,30.42,WNW,286,0.0,3.0,75,-99.99,,,-99.99,,2013-01-09 19:13:00,
2013-01-09 14:23:00,41.0,34.0,30.42,WNW,286,1.0,1.0,75,-99.99,,,-99.99,,2013-01-09 19:23:00,
2013-01-09 14:33:00,41.0,34.0,30.41,WNW,287,0.0,1.0,75,-99.99,,,-99.99,,2013-01-09 19:33:00,
2013-01-09 14:43:00,41.0,34.0,30.41,WNW,287,0.0,1.0,75,-99.99,,,-99.99,,2013-01-09 19:43:00,
2013-01-09 14:53:00,41.0,34.0,30.40,SW,235,1.0,2.0,75,-99.99,,,-99.99,,2013-01-09 19:53:00,
2013-01-09 15:03:00,41.0,34.0,30.39,WSW,250,1.0,4.0,76,-99.99,,,-99.99,,2013-01-09 20:03:00,
2013-01-09 15:12:00,41.0,34.0,30.39,WSW,250,1.0,4.0,76,-99.99,,,-99.99,,2013-01-09 20:12:00,
2013-01-09 15:23:00,42.0,35.0,30.38,WSW,256,1.0,4.0,77,-99.99,,,-99.99,,2013-01-09 20:23:00,
2013-01-09 15:33:00,41.0,35.0,30.36,West,271,1.0,3.0,78,-99.99,,,-99.99,,2013-01-09 20:33:00,
2013-01-09 15:43:00,41.0,35.0,30.36,West,271,1.0,3.0,78,-99.99,,,-99.99,,2013-01-09 20:43:00,
2013-01-09 15:53:00,41.0,35.0,30.35,NNW,333,1.0,3.0,80,-99.99,,,-99.99,,2013-01-09 20:53:00,
2013-01-09 16:03:00,41.0,35.0,30.32,WSW,240,1.0,3.0,80,-99.99,,,-99.99,,2013-01-09 21:03:00,
2013-01-09 16:13:00,41.0,35.0,30.32,WSW,240,1.0,3.0,80,-99.99,,,-99.99,,2013-01-09 21:13:00,
2013-01-09 16:23:00,41.0,36.0,30.30,West,269,2.0,-999.0,82,-99.99,,,-99.99,,2013-01-09 21:23:00,
2013-01-09 16:33:00,41.0,36.0,30.28,SW,222,2.0,7.0,83,-99.99,,,-99.99,,2013-01-09 21:33:00,
2013-01-09 16:43:00,41.0,36.0,30.28,SW,222,2.0,7.0,83,-99.99,,,-99.99,,2013-01-09 21:43:00,
2013-01-09 16:53:00,41.0,36.0,30.31,WSW,257,2.0,6.0,83,-99.99,,,-99.99,,2013-01-09 21:53:00,
2013-01-09 17:03:00,41.0,37.0,30.29,WSW,238,2.0,9.0,84,-99.99,,,-99.99,,2013-01-09 22:03:00,
2013-01-09 17:12:00,41.0,37.0,30.29,WSW,238,2.0,9.0,84,-99.99,,,-99.99,,2013-01-09 22:12:00,
2013-01-09 17:23:00,42.0,38.0,30.29,West,271,2.0,6.0,84,-99.99,,,-99.99,,2013-01-09 22:23:00,
2013-01-09 17:33:00,42.0,38.0,30.30,West,276,3.0,7.0,84,-99.99,,,-99.99,,2013-01-09 22:33:00,
2013-01-09 17:43:00,42.0,38.0,30.30,West,276,3.0,7.0,84,-99.99,,,-99.99,,2013-01-09 22:43:00,
2013-01-09 17:53:00,42.0,38.0,30.31,West,276,2.0,5.0,84,-99.99,,,-99.99,,2013-01-09 22:53:00,
2013-01-09 18:03:00,42.0,37.0,30.31,WNW,283,2.0,4.0,83,-99.99,,,-99.99,,2013-01-09 23:03:00,
2013-01-09 18:13:00,42.0,37.0,30.31,WNW,283,2.0,4.0,83,-99.99,,,-99.99,,2013-01-09 23:13:00,
2013-01-09 18:23:00,42.0,37.0,30.31,WNW,302,2.0,5.0,82,-99.99,,,-99.99,,2013-01-09 23:23:00,
2013-01-09 18:33:00,42.0,37.0,30.31,WSW,250,2.0,4.0,83,-99.99,,,-99.99,,2013-01-09 23:33:00,
2013-01-09 18:43:00,42.0,37.0,30.31,WSW,250,2.0,4.0,83,-99.99,,,-99.99,,2013-01-09 23:43:00,
2013-01-09 18:53:00,42.0,37.0,30.30,WNW,286,3.0,5.0,83,-99.99,,,-99.99,,2013-01-09 23:53:00,
2013-01-09 19:03:00,42.0,38.0,30.30,West,281,3.0,6.0,84,-99.99,,,-99.99,,2013-01-10 00:03:00,
2013-01-09 19:12:00,42.0,38.0,30.30,West,281,3.0,6.0,84,-99.99,,,-99.99,,2013-01-10 00:12:00,
2013-01-09 19:22:00,42.0,38.0,30.29,WNW,288,3.0,6.0,85,-99.99,,,-99.99,,2013-01-10 00:22:00,
2013-01-09 19:32:00,42.0,38.0,30.31,NW,316,3.0,6.0,86,-99.99,,,-99.99,,2013-01-10 00:32:00,
2013-01-09 19:42:00,42.0,38.0,30.31,NW,316,3.0,6.0,86,-99.99,,,-99.99,,2013-01-10 00:42:00,
2013-01-09 19:53:00,42.0,38.0,30.31,WNW,300,4.0,7.0,85,-99.99,,,-99.99,,2013-01-10 00:53:00,
2013-01-09 20:02:00,42.0,38.0,30.30,West,276,4.0,6.0,85,-99.99,,,-99.99,,2013-01-10 01:02:00,
2013-01-09 20:12:00,42.0,38.0,30.30,West,276,4.0,6.0,85,-99.99,,,-99.99,,2013-01-10 01:12:00,
2013-01-09 20:22:00,42.0,38.0,30.31,WNW,288,3.0,7.0,84,-99.99,,,-99.99,,2013-01-10 01:22:00,
2013-01-09 20:33:00,42.0,38.0,30.30,WNW,286,3.0,7.0,84,-99.99,,,-99.99,,2013-01-10 01:33:00,
2013-01-09 20:43:00,42.0,38.0,30.30,WNW,286,3.0,7.0,84,-99.99,,,-99.99,,2013-01-10 01:43:00,
2013-01-09 20:53:00,42.0,37.0,30.30,WNW,297,3.0,7.0,83,-99.99,,,-99.99,,2013-01-10 01:53:00,
2013-01-09 21:03:00,42.0,37.0,30.31,NW,318,3.0,7.0,83,-99.99,,,-99.99,,2013-01-10 02:03:00,
2013-01-09 21:12:00,42.0,37.0,30.31,NW,318,3.0,7.0,83,-99.99,,,-99.99,,2013-01-10 02:12:00,
2013-01-09 21:22:00,42.0,37.0,30.30,NW,311,3.0,5.0,82,-99.99,,,-99.99,,2013-01-10 02:22:00,
2013-01-09 21:32:00,42.0,37.0,30.31,WNW,297,3.0,6.0,82,-99.99,,,-99.99,,2013-01-10 02:32:00,
2013-01-09 21:43:00,42.0,37.0,30.31,WNW,297,3.0,6.0,82,-99.99,,,-99.99,,2013-01-10 02:43:00,
2013-01-09 21:53:00,42.0,37.0,30.31,WNW,297,3.0,6.0,82,-99.99,,,-99.99,,2013-01-10 02:53:00,
2013-01-09 22:03:00,42.0,36.0,30.32,NW,314,3.0,8.0,80,-99.99,,,-99.99,,2013-01-10 03:03:00,
2013-01-09 22:12:00,42.0,36.0,30.32,NW,314,3.0,8.0,80,-99.99,,,-99.99,,2013-01-10 03:12:00,
2013-01-09 22:22:00,42.0,36.0,30.31,NW,308,3.0,7.0,79,-99.99,,,-99.99,,2013-01-10 03:22:00,
2013-01-09 22:33:00,43.0,36.0,30.32,NW,322,3.0,7.0,77,-99.99,,,-99.99,,2013-01-10 03:33:00,
2013-01-09 22:42:00,43.0,36.0,30.32,NW,322,3.0,7.0,77,-99.99,,,-99.99,,2013-01-10 03:42:00,
2013-01-09 22:53:00,43.0,36.0,30.32,NW,308,3.0,7.0,75,-99.99,,,-99.99,,2013-01-10 03:53:00,
2013-01-09 23:02:00,43.0,36.0,30.32,WNW,284,3.0,6.0,75,-99.99,,,-99.99,,2013-01-10 04:02:00,
2013-01-09 23:12:00,43.0,36.0,30.32,WNW,284,3.0,6.0,75,-99.99,,,-99.99,,2013-01-10 04:12:00,
2013-01-09 23:22:00,43.0,36.0,30.32,WNW,287,2.0,8.0,75,-99.99,,,-99.99,,2013-01-10 04:22:00,
2013-01-09 23:32:00,43.0,36.0,30.33,WNW,287,2.0,5.0,75,-99.99,,,-99.99,,2013-01-10 04:32:00,
2013-01-09 23:43:00,43.0,36.0,30.33,WNW,287,2.0,5.0,75,-99.99,,,-99.99,,2013-01-10 04:43:00,
2013-01-09 23:53:00,42.0,35.0,30.33,NW,304,2.0,3.0,76,-99.99,,,-99.99,,2013-01-10 04:53:00,